TimeCDT,TemperatureF,Dew PointF,Humidity,Sea Level PressureIn,VisibilityMPH,Wind Direction,Wind SpeedMPH,Gust SpeedMPH,PrecipitationIn,Events,Conditions,WindDirDegrees,DateUTC
12:15 AM,65.1,64.4,98,30.20,10.0,Calm,Calm,-,N/A,,Clear,0,2013-07-08 05:15:00
12:35 AM,64.8,64.4,99,30.20,10.0,Calm,Calm,-,N/A,,Clear,0,2013-07-08 05:35:00
12:55 AM,64.6,64.0,98,30.20,10.0,Calm,Calm,-,N/A,,Clear,0,2013-07-08 05:55:00
1:15 AM,64.4,63.9,98,30.19,10.0,Calm,Calm,-,N/A,,Clear,0,2013-07-08 06:15:00
1:35 AM,64.0,63.5,98,30.19,10.0,Calm,Calm,-,N/A,,Mostly Cloudy,0,2013-07-08 06:35:00
1:55 AM,63.9,63.5,99,30.19,10.0,Calm,Calm,-,N/A,,Mostly Cloudy,0,2013-07-08 06:55:00
2:15 AM,63.9,63.5,99,30.20,10.0,Calm,Calm,-,N/A,,Mostly Cloudy,0,2013-07-08 07:15:00
2:35 AM,64.2,63.5,98,30.20,10.0,Calm,Calm,-,N/A,,Overcast,0,2013-07-08 07:35:00
2:55 AM,64.6,63.7,97,30.21,10.0,Calm,Calm,-,N/A,,Overcast,0,2013-07-08 07:55:00
3:15 AM,64.9,64.0,97,30.21,10.0,Calm,Calm,-,N/A,,Overcast,0,2013-07-08 08:15:00
3:35 AM,64.9,64.2,98,30.21,10.0,Calm,Calm,-,N/A,,Overcast,0,2013-07-08 08:35:00
3:55 AM,65.5,64.4,96,30.21,10.0,Calm,Calm,-,N/A,,Overcast,0,2013-07-08 08:55:00
4:15 AM,65.7,64.6,96,30.21,10.0,Calm,Calm,-,N/A,,Overcast,0,2013-07-08 09:15:00
4:35 AM,66.0,64.6,95,30.22,10.0,Calm,Calm,-,N/A,,Overcast,0,2013-07-08 09:35:00
4:55 AM,66.2,64.8,95,30.21,10.0,Calm,Calm,-,N/A,,Overcast,0,2013-07-08 09:55:00
5:15 AM,66.2,64.8,95,30.21,10.0,Calm,Calm,-,N/A,,Overcast,0,2013-07-08 10:15:00
5:55 AM,65.8,64.6,96,30.22,10.0,Calm,Calm,-,N/A,,Overcast,0,2013-07-08 10:55:00
6:15 AM,66.2,64.8,95,30.22,10.0,Calm,Calm,-,N/A,,Overcast,0,2013-07-08 11:15:00
6:35 AM,65.8,65.3,98,30.23,4.0,Calm,Calm,-,N/A,,Overcast,0,2013-07-08 11:35:00
6:55 AM,65.8,65.5,99,30.24,2.5,Calm,Calm,-,N/A,,Overcast,0,2013-07-08 11:55:00
7:15 AM,66.2,65.8,99,30.24,1.8,Calm,Calm,-,N/A,,Overcast,0,2013-07-08 12:15:00
7:35 AM,66.7,65.8,97,30.24,5.0,Calm,Calm,-,N/A,,Overcast,0,2013-07-08 12:35:00
7:55 AM,67.5,66.0,95,30.24,10.0,Calm,Calm,-,N/A,,Overcast,0,2013-07-08 12:55:00
8:15 AM,68.2,66.4,94,30.24,10.0,Calm,Calm,-,N/A,,Overcast,0,2013-07-08 13:15:00
8:35 AM,68.7,66.2,92,30.24,10.0,Calm,Calm,-,N/A,,Overcast,0,2013-07-08 13:35:00
8:55 AM,69.8,66.7,90,30.24,10.0,Calm,Calm,-,N/A,,Overcast,0,2013-07-08 13:55:00
9:15 AM,71.1,67.3,88,30.24,10.0,Calm,Calm,-,N/A,,Overcast,0,2013-07-08 14:15:00
9:35 AM,71.6,67.6,87,30.24,10.0,NNW,3.5,-,N/A,,Overcast,340,2013-07-08 14:35:00
9:55 AM,73.0,68.4,85,30.25,10.0,East,3.5,-,N/A,,Overcast,90,2013-07-08 14:55:00
10:15 AM,72.5,67.6,85,30.25,10.0,SSW,3.5,-,N/A,,Overcast,200,2013-07-08 15:15:00
10:35 AM,73.0,68.0,84,30.25,10.0,SSE,6.9,-,N/A,,Overcast,150,2013-07-08 15:35:00
10:55 AM,73.2,68.0,84,30.25,10.0,South,6.9,-,N/A,,Overcast,180,2013-07-08 15:55:00
11:15 AM,73.9,68.4,83,30.25,10.0,SSE,4.6,-,N/A,,Overcast,160,2013-07-08 16:15:00
11:35 AM,74.7,68.4,81,30.25,10.0,South,4.6,-,N/A,,Overcast,170,2013-07-08 16:35:00
11:55 AM,77.0,69.1,76,30.25,10.0,South,5.8,-,N/A,,Overcast,180,2013-07-08 16:55:00
12:15 PM,76.3,68.4,76,30.25,10.0,SSE,3.5,-,N/A,,Overcast,160,2013-07-08 17:15:00
12:35 PM,77.9,69.1,74,30.24,10.0,South,4.6,-,N/A,,Mostly Cloudy,180,2013-07-08 17:35:00
12:55 PM,79.2,67.5,67,30.23,10.0,SE,4.6,-,N/A,,Scattered Clouds,130,2013-07-08 17:55:00
1:15 PM,81.0,68.2,65,30.22,10.0,SSE,4.6,-,N/A,,Clear,160,2013-07-08 18:15:00
1:35 PM,81.7,67.3,61,30.22,10.0,East,4.6,-,N/A,,Clear,100,2013-07-08 18:35:00
1:55 PM,82.2,67.5,61,30.21,10.0,SSW,5.8,-,N/A,,Clear,210,2013-07-08 18:55:00
2:15 PM,82.4,67.3,60,30.20,10.0,SSE,5.8,-,N/A,,Clear,160,2013-07-08 19:15:00
2:35 PM,81.7,65.1,57,30.20,10.0,Calm,Calm,-,N/A,,Clear,0,2013-07-08 19:35:00
2:55 PM,82.2,66.7,59,30.19,10.0,SSW,3.5,-,N/A,,Scattered Clouds,200,2013-07-08 19:55:00
3:15 PM,83.3,66.9,58,30.18,10.0,SSE,3.5,-,N/A,,Mostly Cloudy,160,2013-07-08 20:15:00
3:35 PM,84.6,66.0,54,30.17,10.0,SSW,3.5,-,N/A,,Scattered Clouds,200,2013-07-08 20:35:00
3:55 PM,84.0,65.1,53,30.16,10.0,Calm,Calm,-,N/A,,Clear,0,2013-07-08 20:55:00
4:15 PM,83.3,65.8,55,30.16,10.0,Calm,Calm,-,N/A,,Clear,0,2013-07-08 21:15:00
4:35 PM,83.5,65.7,55,30.16,10.0,South,3.5,-,N/A,,Clear,190,2013-07-08 21:35:00
4:55 PM,82.6,66.0,57,30.15,10.0,South,4.6,-,N/A,,Clear,190,2013-07-08 21:55:00
5:15 PM,83.5,66.4,56,30.15,10.0,South,3.5,-,N/A,,Clear,190,2013-07-08 22:15:00
5:35 PM,83.3,66.2,56,30.14,10.0,Calm,Calm,-,N/A,,Clear,0,2013-07-08 22:35:00
5:55 PM,82.6,66.7,59,30.14,10.0,SSW,3.5,-,N/A,,Clear,210,2013-07-08 22:55:00
6:15 PM,82.2,66.9,60,30.14,10.0,Calm,Calm,-,N/A,,Clear,0,2013-07-08 23:15:00
6:35 PM,80.6,69.6,69,30.15,10.0,Calm,Calm,-,N/A,,Clear,0,2013-07-08 23:35:00
6:55 PM,79.3,69.3,71,30.15,10.0,WSW,3.5,-,N/A,,Clear,250,2013-07-08 23:55:00
7:15 PM,77.9,69.1,74,30.15,10.0,WSW,3.5,-,N/A,,Clear,250,2013-07-09 00:15:00
7:35 PM,76.3,69.3,79,30.16,10.0,Calm,Calm,-,N/A,,Clear,0,2013-07-09 00:35:00
7:55 PM,74.7,68.4,81,30.16,10.0,West,5.8,-,N/A,,Clear,270,2013-07-09 00:55:00
8:15 PM,73.6,68.5,84,30.16,10.0,Calm,Calm,-,N/A,,Clear,0,2013-07-09 01:15:00
8:35 PM,72.9,67.5,83,30.16,10.0,Calm,Calm,-,N/A,,Clear,0,2013-07-09 01:35:00
8:55 PM,72.5,66.9,83,30.17,10.0,West,3.5,-,N/A,,Clear,260,2013-07-09 01:55:00
9:15 PM,71.6,67.1,86,30.18,10.0,Calm,Calm,-,N/A,,Clear,0,2013-07-09 02:15:00
9:35 PM,71.1,66.2,85,30.20,10.0,Calm,Calm,-,N/A,,Clear,0,2013-07-09 02:35:00
9:55 PM,70.7,65.7,84,30.20,10.0,WSW,4.6,-,N/A,,Clear,250,2013-07-09 02:55:00
10:15 PM,70.0,65.3,85,30.21,10.0,WSW,3.5,-,N/A,,Clear,250,2013-07-09 03:15:00
10:35 PM,69.6,65.1,86,30.21,10.0,Calm,Calm,-,N/A,,Clear,0,2013-07-09 03:35:00
10:55 PM,68.7,65.5,89,30.21,10.0,Calm,Calm,-,N/A,,Clear,0,2013-07-09 03:55:00
11:15 PM,68.7,64.8,87,30.21,10.0,Calm,Calm,-,N/A,,Clear,0,2013-07-09 04:15:00
11:35 PM,68.4,64.6,88,30.21,10.0,Calm,Calm,-,N/A,,Clear,0,2013-07-09 04:35:00
11:55 PM,68.2,64.4,88,30.21,10.0,Calm,Calm,-,N/A,,Clear,0,2013-07-09 04:55:00